Temp
13 11 9 11 11 12 12 14 14 14 14 17 17 16 16 14 14 14 15 16 15 15 14 15 16 17 16 17 17 16 16 16 15 15 15 15 15 14 14 14 14 14 15 15
11 10 10 12 11 13 13 13 12 12 13 15 14 15 14 12 14 15 15 16 16 15 15 15 15 16 16 17 17 16 16 16 15 15 15 15 15 14 14 14 14 14 14 14
9 13 11 12 11 12 11 11 13 13 14 14 14 13 15 14 14 15 15 16 16 16 16 15 15 16 17 17 17 17 16 16 15 15 14 14 14 14 14 14 14 14 14 13
11 12 13 12 12 12 12 12 13 13 13 13 14 12 13 13 14 14 15 16 16 16 16 16 16 16 17 17 17 17 17 16 15 15 14 15 15 15 14 13 13 13 13 13
11 12 12 12 12 12 13 12 12 13 12 13 14 12 11 12 13 14 15 15 16 17 17 17 17 17 16 16 17 17 17 16 16 15 14 14 14 14 13 13 13 13 12 12
12 13 12 12 13 13 15 13 10 9 10 11 13 13 11 11 13 15 15 15 16 17 17 18 17 17 17 16 17 17 17 16 16 15 14 14 14 13 13 13 13 13 12 12
12 12 14 15 14 14 13 11 10 11 10 10 12 12 13 14 13 14 15 16 16 16 17 16 17 18 18 18 17 17 16 17 17 16 14 14 13 12 12 12 13 12 12 12
9 11 12 13 13 12 12 11 9 12 10 11 12 12 14 14 14 15 16 17 16 15 16 16 15 15 15 17 18 16 17 17 17 15 14 13 13 12 12 12 12 12 12 11
6 10 10 13 13 13 12 11 12 9 10 10 10 11 14 11 11 11 11 13 13 14 14 16 16 16 17 17 18 18 17 16 15 16 13 12 12 12 12 11 11 11 11 11
5 7 10 10 12 12 12 11 11 8 10 11 10 10 9 9 9 9 9 10 10 12 13 13 14 14 16 17 17 17 15 17 16 14 12 12 12 12 11 11 11 11 10 10
3 5 9 9 7 9 9 10 9 9 9 10 10 8 11 9 8 8 7 8 8 9 12 14 14 14 15 16 17 18 15 15 15 13 12 12 11 11 10 10 10 10 10 10
2 3 5 8 7 7 6 6 7 9 10 8 9 7 10 10 8 7 7 7 7 8 11 14 16 14 14 14 14 14 14 12 12 12 11 11 11 10 10 10 9 9 9 9
1 3 5 8 7 6 5 6 6 6 6 8 8 6 9 9 7 6 5 6 6 8 9 11 13 12 13 13 13 12 12 12 11 11 11 11 10 10 10 9 9 9 8 8
2 2 3 5 3 3 4 4 5 6 6 6 7 7 7 7 5 4 4 4 4 5 6 8 8 8 9 10 11 11 11 11 11 10 11 11 10 10 10 9 9 8 8 8
0 1 1 2 2 3 3 3 4 5 6 6 6 6 5 4 3 3 2 3 3 3 4 5 6 6 6 7 8 9 10 10 10 10 10 10 10 9 9 8 8 8 7 6
-0 -0 -0 1 2 2 2 3 3 4 5 5 5 5 2 3 2 2 1 1 1 1 1 3 5 6 6 5 6 7 8 9 9 9 10 10 9 9 9 8 8 7 6 6
-1 -1 -0 -0 1 2 0 3 2 3 4 3 4 2 1 1 2 1 1 1 1 1 1 2 3 4 5 6 5 5 7 8 8 9 9 10 9 9 8 8 7 6 6 5
-1 -1 -0 -1 0 -6 2 1 2 2 1 2 1 0 0 0 1 1 1 1 1 1 1 2 2 3 4 6 6 6 6 7 7 8 9 9 9 9 8 7 7 6 5 5
-2 -1 -2 -5 -2 0 1 -1 -1 -0 0 1 1 0 0 1 1 1 1 1 1 1 2 2 2 2 4 6 8 8 7 7 7 8 8 8 8 8 7 7 7 6 5 4
-2 -1 -2 -3 -3 -5 -0 -1 0 0 0 -1 -0 0 -0 0 -1 -1 1 1 1 1 2 2 2 3 3 5 7 7 6 7 7 7 9 8 7 8 7 6 7 6 4 5
-2 -2 -3 -3 -2 -1 -2 -1 0 -0 -1 -1 -1 -0 -0 -1 0 1 1 1 1 1 1 2 3 3 2 2 3 4 5 6 7 6 7 7 7 7 4 5 5 5 5 4
-1 -5 -6 -3 -4 -5 -1 -0 -1 -2 -1 -1 -0 0 1 0 1 1 1 1 1 1 1 1 2 3 3 2 2 2 3 4 4 5 6 6 7 7 5 4 5 5 5 4
-3 -2 -6 -5 -3 -1 -1 -0 0 0 -1 -0 -1 -0 1 0 0 0 0 1 1 1 1 1 1 2 3 3 2 1 1 3 3 4 4 5 5 5 5 4 4 5 4 3
-2 -2 -3 -2 -1 -2 -1 -0 -0 -0 -0 -0 -0 -1 -1 -1 -0 -0 0 0 0 0 0 0 1 1 2 2 2 2 1 1 2 2 3 4 4 3 3 3 4 5 4 3
-2 -2 -2 -2 -1 -1 -1 -1 -1 -0 -1 -1 -1 -1 -1 -1 -1 -1 -0 -0 -0 0 0 0 0 0 1 1 2 1 1 -0 2 2 3 3 3 3 3 3 5 4 5 5
-3 -3 -3 -3 -1 -2 -1 -1 -1 -1 -1 -1 -1 -2 -2 -2 -2 -2 -1 -1 -1 -0 -0 -0 -0 -0 0 1 1 2 1 0 -1 1 2 2 2 1 2 3 3 2 4 4
Height
1448 1456 1460 1455 1458 1461 1465 1467 1468 1467 1461 1460 1460 1460 1454 1452 1455 1457 1461 1464 1467 1471 1476 1480 1483 1490 1496 1500 1504 1510 1513 1519 1524 1530 1533 1536 1539 1542 1544 1547 1549 1551 1553 1554
1450 1453 1449 1451 1457 1459 1463 1467 1471 1468 1460 1463 1463 1462 1453 1453 1449 1447 1449 1456 1463 1470 1474 1476 1479 1485 1492 1497 1501 1506 1510 1515 1520 1526 1532 1535 1538 1540 1542 1545 1546 1548 1550 1551
1449 1443 1441 1448 1455 1461 1465 1469 1467 1466 1461 1459 1463 1468 1455 1448 1448 1449 1451 1455 1461 1465 1469 1472 1476 1480 1487 1493 1496 1501 1507 1511 1517 1522 1527 1531 1535 1537 1539 1541 1544 1546 1547 1549
1444 1439 1442 1447 1451 1455 1463 1457 1457 1461 1467 1475 1460 1481 1460 1452 1447 1447 1447 1451 1455 1460 1465 1469 1473 1477 1480 1486 1492 1498 1502 1507 1514 1518 1522 1526 1528 1532 1536 1539 1541 1543 1544 1545
1439 1436 1441 1446 1446 1449 1455 1451 1456 1458 1465 1464 1462 1473 1464 1453 1452 1444 1444 1448 1451 1454 1457 1460 1465 1470 1478 1482 1488 1494 1499 1504 1509 1515 1519 1523 1525 1529 1533 1535 1536 1539 1540 1542
1431 1430 1433 1435 1437 1441 1442 1452 1460 1466 1470 1479 1466 1469 1469 1457 1444 1441 1437 1442 1447 1451 1454 1457 1463 1470 1473 1478 1484 1490 1495 1500 1504 1509 1513 1517 1520 1523 1527 1529 1531 1535 1537 1539
1430 1431 1429 1429 1436 1439 1443 1457 1478 1477 1480 1481 1463 1468 1455 1443 1440 1437 1436 1436 1439 1445 1449 1452 1456 1461 1465 1470 1476 1481 1487 1492 1496 1500 1504 1509 1514 1518 1523 1525 1527 1531 1534 1536
1441 1440 1431 1428 1432 1440 1444 1449 1468 1468 1481 1474 1462 1465 1451 1443 1441 1440 1438 1438 1439 1441 1444 1448 1452 1457 1460 1464 1469 1475 1480 1483 1487 1493 1500 1504 1508 1514 1517 1519 1524 1526 1531 1533
1450 1437 1429 1426 1425 1429 1441 1449 1443 1464 1466 1470 1466 1459 1446 1446 1444 1442 1441 1441 1444 1445 1444 1444 1446 1449 1456 1459 1462 1468 1473 1479 1483 1489 1493 1499 1505 1508 1511 1515 1519 1522 1526 1530
1459 1449 1433 1429 1425 1428 1431 1434 1451 1462 1469 1468 1467 1468 1470 1463 1456 1451 1447 1446 1446 1445 1446 1446 1447 1451 1452 1455 1459 1463 1467 1473 1480 1484 1490 1495 1501 1504 1508 1512 1516 1519 1524 1527
1462 1456 1441 1434 1443 1442 1440 1440 1443 1447 1455 1456 1469 1479 1463 1464 1460 1456 1453 1451 1448 1444 1442 1440 1442 1445 1448 1451 1455 1460 1464 1469 1473 1478 1484 1491 1496 1500 1506 1510 1514 1518 1522 1525
1469 1466 1456 1447 1448 1446 1447 1452 1452 1449 1452 1455 1456 1478 1463 1462 1461 1458 1454 1450 1450 1447 1441 1436 1436 1439 1442 1444 1449 1454 1457 1463 1468 1475 1482 1487 1492 1497 1502 1507 1511 1516 1519 1522
1475 1469 1460 1445 1450 1450 1457 1458 1458 1454 1454 1451 1457 1478 1464 1463 1461 1460 1455 1451 1448 1444 1440 1438 1433 1438 1441 1443 1446 1450 1454 1458 1464 1470 1476 1481 1486 1491 1497 1503 1508 1513 1517 1520
1475 1474 1473 1462 1470 1474 1465 1465 1463 1461 1461 1461 1460 1464 1467 1465 1466 1463 1459 1457 1453 1447 1446 1444 1442 1442 1443 1444 1446 1449 1453 1456 1461 1466 1470 1476 1481 1487 1493 1499 1504 1509 1513 1517
1486 1484 1481 1474 1475 1474 1472 1471 1468 1466 1462 1464 1463 1465 1469 1471 1470 1469 1465 1458 1454 1452 1448 1446 1445 1446 1447 1447 1447 1448 1451 1454 1457 1462 1467 1473 1478 1484 1490 1496 1500 1505 1511 1515
1489 1487 1486 1482 1472 1473 1470 1469 1469 1467 1464 1462 1463 1466 1470 1470 1470 1468 1465 1462 1458 1457 1456 1451 1447 1447 1447 1448 1449 1449 1450 1451 1454 1458 1463 1470 1475 1481 1486 1491 1497 1502 1507 1511
1490 1488 1486 1483 1479 1474 1478 1464 1464 1462 1461 1465 1464 1471 1471 1471 1470 1470 1468 1465 1462 1458 1455 1453 1451 1448 1445 1445 1446 1446 1448 1450 1452 1455 1459 1463 1468 1475 1483 1484 1493 1500 1502 1507
1487 1489 1488 1488 1483 1520 1467 1466 1462 1463 1469 1469 1472 1472 1471 1472 1472 1470 1470 1469 1466 1463 1458 1455 1452 1448 1444 1440 1439 1440 1442 1445 1449 1452 1455 1459 1464 1470 1476 1482 1484 1493 1500 1503
1482 1484 1489 1503 1486 1473 1467 1471 1471 1470 1472 1471 1471 1473 1470 1467 1465 1468 1469 1469 1468 1465 1461 1457 1454 1449 1441 1435 1431 1430 1435 1439 1442 1447 1453 1457 1462 1465 1469 1475 1482 1490 1494 1500
1478 1481 1485 1488 1492 1500 1469 1470 1469 1470 1469 1474 1473 1472 1471 1467 1470 1472 1469 1468 1467 1465 1461 1457 1453 1449 1442 1433 1428 1427 1432 1437 1439 1442 1446 1452 1460 1463 1465 1470 1475 1483 1490 1494
1479 1480 1484 1484 1482 1470 1469 1467 1466 1469 1474 1471 1471 1471 1471 1470 1469 1468 1468 1467 1466 1463 1460 1458 1454 1450 1446 1439 1433 1434 1435 1437 1440 1443 1444 1447 1454 1459 1465 1465 1469 1477 1480 1492
1474 1489 1490 1481 1487 1488 1466 1466 1468 1470 1468 1468 1469 1469 1469 1468 1466 1465 1464 1463 1462 1460 1458 1456 1453 1450 1447 1444 1440 1437 1437 1439 1439 1439 1440 1444 1447 1453 1458 1464 1470 1471 1472 1480
1475 1471 1483 1478 1469 1462 1462 1462 1464 1465 1465 1463 1463 1464 1465 1464 1463 1462 1461 1459 1458 1457 1456 1453 1451 1448 1446 1445 1443 1440 1436 1435 1436 1436 1436 1439 1444 1448 1450 1456 1461 1464 1469 1474
1462 1463 1463 1465 1457 1459 1460 1461 1460 1459 1459 1459 1459 1458 1459 1458 1458 1457 1456 1455 1453 1452 1451 1450 1447 1445 1443 1442 1441 1439 1436 1431 1429 1431 1432 1434 1437 1440 1444 1450 1455 1458 1461 1467
1457 1458 1457 1451 1451 1455 1454 1452 1451 1451 1452 1452 1452 1453 1452 1451 1449 1450 1450 1449 1448 1447 1446 1445 1443 1442 1439 1438 1436 1436 1433 1429 1425 1425 1427 1429 1431 1434 1438 1443 1445 1449 1454 1458
1450 1450 1452 1440 1444 1443 1442 1443 1443 1443 1444 1444 1444 1442 1443 1444 1441 1442 1441 1442 1441 1440 1440 1438 1438 1436 1434 1433 1432 1430 1429 1427 1424 1423 1423 1423 1424 1427 1430 1434 1440 1446 1451 1456
Wind_Speed
4 4 8 12 6 5 5 3 1 3 4 1 4 6 9 10 12 10 20 25 28 32 32 35 39 39 40 34 36 36 35 34 32 29 28 26 26 24 21 19 17 15 14 15
3 9 9 4 5 5 3 3 3 5 6 5 5 9 10 7 13 26 28 28 25 23 27 32 38 41 41 38 37 36 36 35 33 32 30 27 26 25 23 21 19 17 16 16
7 4 9 8 5 7 4 6 5 6 2 2 4 6 6 5 9 17 18 17 17 23 29 33 37 43 43 42 39 37 36 35 33 32 32 30 29 27 27 24 22 19 19 18
5 6 6 3 4 6 4 9 7 5 3 3 4 4 5 5 9 8 21 22 25 28 32 35 38 44 46 45 40 38 37 36 35 34 35 33 31 32 31 25 22 21 19 17
7 6 6 5 7 8 8 6 8 5 5 2 1 2 7 0 7 10 13 22 30 33 37 42 44 45 46 46 42 41 40 39 38 36 36 35 32 30 29 26 23 21 19 16
8 2 6 10 5 10 3 5 6 4 4 1 4 5 5 5 8 7 17 19 28 36 38 40 39 39 45 46 44 45 44 43 43 40 39 37 34 31 31 27 24 21 19 17
1 3 2 3 4 2 4 6 2 1 0 5 3 4 6 5 7 8 10 24 27 33 38 40 41 44 46 48 48 49 50 49 46 46 42 40 36 31 28 26 23 21 20 17
5 2 7 3 8 7 6 8 5 6 4 5 1 5 4 3 9 5 12 22 24 30 35 38 40 43 46 48 48 49 52 53 52 48 45 43 36 32 28 26 22 19 18 15
3 3 5 2 1 9 5 5 6 6 2 3 3 6 4 14 16 17 21 18 5 17 30 38 41 42 41 43 46 46 50 53 52 47 47 41 34 33 31 26 23 20 18 17
4 3 3 5 1 4 5 5 4 2 6 4 2 3 3 8 8 10 14 20 22 16 6 25 34 39 44 46 47 50 49 48 47 46 43 38 34 32 28 27 24 21 19 18
6 2 4 3 6 3 5 3 4 5 4 6 4 2 2 4 6 6 8 18 25 25 21 12 22 37 43 49 51 51 49 48 48 44 40 36 33 32 28 26 24 22 20 18
4 3 3 1 2 5 5 3 3 4 5 1 5 3 1 0 4 8 14 22 26 30 28 17 7 21 36 44 49 50 51 48 47 41 36 32 35 30 30 27 26 24 21 20
6 3 3 2 1 5 6 4 4 1 1 3 5 4 2 3 7 14 17 27 30 35 34 28 12 14 27 34 38 43 47 47 44 40 36 35 37 33 32 30 28 25 22 21
7 2 3 1 3 3 4 6 7 4 1 1 1 6 5 4 6 14 21 22 25 31 33 30 25 13 17 25 30 33 38 43 44 41 38 37 38 37 33 31 29 27 25 23
4 3 5 7 5 4 5 8 5 3 4 2 3 3 5 7 6 11 14 23 28 31 34 32 28 22 14 16 22 25 30 37 41 40 37 38 38 36 33 32 30 29 27 25
3 2 4 5 9 5 6 5 5 5 5 7 6 6 6 10 13 16 21 23 27 27 29 31 28 24 17 13 17 21 25 29 34 39 38 38 38 37 35 33 32 31 28 26
2 2 1 2 5 7 7 4 8 4 1 2 4 1 5 6 10 16 19 23 26 30 32 35 33 29 23 16 13 22 21 26 32 38 39 39 37 38 37 33 33 33 31 28
4 3 3 2 1 0 2 6 1 9 6 6 7 6 7 4 4 20 24 22 26 31 31 33 35 32 26 23 19 22 22 24 30 39 41 39 37 35 35 35 34 34 33 30
12 8 3 3 5 6 2 4 4 3 3 6 1 4 9 18 5 2 21 22 22 26 31 31 33 33 29 29 24 24 26 23 28 38 41 39 38 37 36 35 34 36 35 33
5 5 5 3 3 5 1 5 6 3 4 4 5 6 6 12 3 2 16 20 23 24 27 33 32 32 32 26 20 14 26 25 27 38 42 41 38 37 36 33 36 39 36 34
3 3 7 6 4 4 1 7 7 6 2 4 2 9 9 1 2 10 13 18 22 24 25 27 31 30 32 31 20 10 21 29 29 35 42 42 41 40 38 31 39 41 36 35
7 4 3 4 5 8 5 1 1 2 2 6 12 9 7 6 10 15 20 20 23 23 24 26 28 30 30 29 28 14 10 22 29 33 36 40 41 38 38 41 43 40 37 38
9 7 4 7 5 4 6 7 8 8 10 15 19 20 17 14 17 15 17 24 26 27 22 23 27 28 27 29 26 26 16 11 21 30 32 35 37 39 40 45 45 42 42 42
11 8 9 8 12 16 25 31 21 16 18 17 15 19 16 18 19 21 23 26 30 30 24 21 26 30 27 26 26 21 24 21 19 28 29 32 34 36 39 42 45 45 46 45
11 7 13 20 19 19 24 26 29 32 21 18 23 24 28 32 34 29 30 28 31 27 23 22 28 29 26 25 23 22 19 25 18 26 30 29 33 36 42 45 47 48 46 44
16 18 13 17 11 18 27 33 33 36 27 25 30 31 30 31 33 28 28 32 31 31 28 28 31 30 25 25 23 18 22 20 15 17 31 33 32 39 42 45 45 46 45 42
Wind_Direction
177 141 196 202 165 154 141 162 157 278 269 339 238 222 264 221 216 202 198 199 196 199 200 203 204 204 206 202 201 202 203 209 211 215 219 222 220 219 222 228 239 247 250 251
73 228 215 138 157 146 126 157 256 276 265 156 259 258 264 179 222 212 207 209 202 199 195 203 206 209 211 208 208 208 210 215 216 220 223 224 221 221 226 234 243 246 248 251
170 228 162 153 152 145 164 157 207 209 6 225 127 300 274 233 236 229 239 235 223 213 207 207 211 213 212 213 214 215 215 218 220 222 222 221 222 225 229 234 238 240 246 250
216 223 129 140 165 143 184 207 197 217 115 214 151 254 267 255 243 206 227 226 221 217 219 217 215 216 215 216 217 217 217 217 221 224 223 228 232 233 235 236 238 240 242 247
233 178 163 173 195 162 214 150 192 195 179 141 251 78 276 167 261 246 227 219 221 221 224 223 223 223 219 221 219 217 219 218 220 224 224 228 230 236 240 238 237 238 241 246
208 193 149 198 167 173 162 102 53 53 98 267 200 153 268 204 208 252 247 234 213 218 224 229 229 226 222 223 219 217 219 220 222 223 223 226 230 231 230 232 233 237 239 242
349 226 221 146 118 178 109 86 31 16 341 204 228 157 247 243 239 220 236 242 238 224 224 224 222 222 224 226 225 220 218 222 225 224 224 227 229 229 236 239 237 235 234 243
176 219 162 187 181 175 184 161 158 181 185 197 164 232 239 317 19 300 294 257 246 235 229 231 233 230 227 228 230 228 222 222 224 222 224 226 224 228 234 230 232 230 236 238
8 265 324 117 176 146 201 167 175 99 34 99 212 320 47 28 28 29 34 42 322 236 239 238 236 238 237 231 227 222 223 224 222 226 225 224 226 229 228 220 221 224 227 230
346 312 326 293 12 35 149 165 103 11 149 196 336 57 334 356 21 13 11 8 9 18 304 253 246 241 234 230 225 223 225 228 232 229 225 226 230 226 217 221 219 221 223 224
350 11 298 2 16 333 353 56 59 119 151 175 136 243 9 349 10 13 0 7 11 7 359 312 251 247 242 237 232 233 232 233 232 230 226 225 229 219 215 218 221 220 223 222
310 315 299 97 357 55 68 41 40 151 202 160 137 210 330 66 40 24 12 13 16 18 11 354 276 245 244 241 239 237 234 231 232 230 226 229 225 217 216 219 218 219 220 219
325 7 327 98 349 25 41 15 13 277 34 178 141 180 203 311 26 14 14 17 17 19 17 14 4 272 253 249 245 242 239 237 231 225 223 227 222 219 217 215 215 216 218 217
12 11 342 295 39 12 330 358 6 6 74 74 130 131 1 34 33 4 7 18 19 21 20 20 24 358 267 255 252 251 245 241 234 224 222 223 221 219 215 213 214 218 216 214
29 327 346 307 280 290 269 287 291 265 269 241 125 43 78 41 41 19 12 16 22 19 15 16 15 16 352 292 270 258 251 246 236 226 221 219 219 217 214 212 214 217 216 214
355 313 10 299 321 360 293 250 271 251 262 274 265 276 29 35 42 34 26 19 14 14 15 9 5 0 357 339 300 275 261 252 237 226 218 218 216 216 213 211 215 214 213 213
253 237 78 249 7 330 310 294 212 183 108 338 234 68 18 28 43 34 23 23 17 9 8 8 2 353 346 326 288 275 275 258 234 221 215 216 215 212 211 210 214 216 214 211
206 191 217 262 24 297 280 13 304 104 88 69 68 22 353 344 134 57 35 23 15 13 6 4 2 352 344 335 298 259 256 250 238 221 219 217 214 212 213 214 214 216 217 214
208 203 222 175 213 297 112 10 15 19 118 22 79 8 338 346 187 46 21 18 11 8 8 2 2 357 347 342 320 252 245 239 235 228 225 222 216 215 215 215 216 217 216 213
144 201 185 194 204 230 106 307 308 174 188 355 14 344 337 1 79 275 5 7 2 0 0 360 358 358 360 353 343 268 238 240 235 231 227 227 221 220 220 222 220 218 219 217
158 172 208 228 258 265 215 295 317 191 134 289 332 302 326 48 320 329 341 348 353 350 351 354 357 357 360 8 9 291 252 250 248 239 235 230 223 229 227 227 222 216 214 217
216 179 193 212 216 250 207 53 42 151 268 294 339 317 291 286 321 320 321 326 335 340 337 341 346 352 352 355 8 357 263 257 250 246 244 238 232 230 232 225 220 219 217 215
246 212 197 186 208 150 163 294 266 253 267 293 302 302 276 279 290 295 305 312 318 326 319 324 334 339 343 341 344 356 339 267 267 255 249 244 237 231 240 229 223 219 217 212
237 195 232 247 239 252 264 271 260 226 263 272 290 297 270 287 286 275 288 295 303 311 307 307 323 330 331 335 330 336 344 315 234 253 249 243 239 238 232 225 222 222 217 213
235 230 251 256 253 266 258 252 242 247 263 264 281 277 272 275 276 271 277 287 297 296 292 291 310 318 317 321 327 315 329 348 251 241 249 250 248 245 232 230 227 224 226 225
240 249 241 251 229 224 246 258 258 258 249 277 286 282 279 279 282 275 273 287 287 289 283 281 296 305 304 308 313 315 289 320 349 249 248 250 249 237 233 231 225 226 231 229